Voltar ao catálogo

SCOUT X-4 DEB

AtivoPO
NORAD 2986·DEBRIS·🇺🇸 United States

Lançado Jun 4, 1964 de Vandenberg Space Force Base

Loading…

Próximas Passagens (próximas 24 horas)

TLE

AtualizadoSource: Space-Track

Época: Sep 14, 2026, 14:07 UTC

1 02986U 64026E   26257.58832292  .00000189  00000-0  10820-3 0  9996
2 02986  90.4840 197.1356 0044085 303.5595  56.1381 14.06559163187038

Acompanhe SCOUT X-4 DEB em tempo real com AllMySat

Download on the App Store